TimeCDT,TemperatureF,Dew PointF,Humidity,Sea Level PressureIn,VisibilityMPH,Wind Direction,Wind SpeedMPH,Gust SpeedMPH,PrecipitationIn,Events,Conditions,WindDirDegrees,DateUTC
12:15 AM,70.7,60.4,70,30.14,10.0,South,6.9,-,N/A,,Clear,190,2013-08-26 05:15:00
12:35 AM,70.7,60.8,71,30.14,10.0,South,5.8,-,N/A,,Clear,190,2013-08-26 05:35:00
12:55 AM,69.3,61.3,76,30.14,10.0,South,4.6,-,N/A,,Clear,190,2013-08-26 05:55:00
1:15 AM,68.4,61.5,79,30.13,10.0,South,4.6,-,N/A,,Clear,170,2013-08-26 06:15:00
1:35 AM,67.6,61.7,81,30.13,10.0,South,4.6,-,N/A,,Clear,180,2013-08-26 06:35:00
1:55 AM,67.1,61.7,83,30.13,10.0,Calm,Calm,-,N/A,,Clear,0,2013-08-26 06:55:00
2:15 AM,66.6,61.7,84,30.12,10.0,South,5.8,-,N/A,,Clear,180,2013-08-26 07:15:00
2:35 AM,67.3,61.9,83,30.12,10.0,SSW,6.9,-,N/A,,Clear,200,2013-08-26 07:35:00
2:55 AM,67.8,62.2,82,30.12,10.0,SSW,5.8,-,N/A,,Clear,200,2013-08-26 07:55:00
3:15 AM,68.0,62.6,83,30.13,10.0,SSW,4.6,-,N/A,,Clear,210,2013-08-26 08:15:00
3:35 AM,68.0,62.6,83,30.13,10.0,SSW,5.8,-,N/A,,Clear,200,2013-08-26 08:35:00
3:55 AM,66.4,62.1,86,30.13,10.0,SSW,4.6,-,N/A,,Clear,200,2013-08-26 08:55:00
4:15 AM,67.1,63.0,87,30.13,10.0,SSW,5.8,-,N/A,,Clear,200,2013-08-26 09:15:00
4:35 AM,67.3,63.3,87,30.12,7.0,SSW,5.8,-,N/A,,Clear,200,2013-08-26 09:35:00
4:55 AM,67.5,63.3,87,30.13,7.0,SSW,4.6,-,N/A,,Clear,200,2013-08-26 09:55:00
5:15 AM,66.4,63.0,89,30.13,7.0,SSW,4.6,-,N/A,,Clear,200,2013-08-26 10:15:00
5:35 AM,66.2,62.8,89,30.13,7.0,SSW,4.6,-,N/A,,Clear,200,2013-08-26 10:35:00
5:55 AM,66.0,63.0,90,30.13,7.0,South,6.9,-,N/A,,Clear,190,2013-08-26 10:55:00
6:15 AM,66.2,63.0,89,30.13,7.0,South,5.8,-,N/A,,Clear,190,2013-08-26 11:15:00
6:35 AM,66.2,63.0,89,30.14,7.0,South,5.8,-,N/A,,Clear,180,2013-08-26 11:35:00
6:55 AM,66.2,63.0,89,30.14,5.0,South,4.6,-,N/A,,Clear,180,2013-08-26 11:55:00
7:15 AM,66.6,63.5,90,30.15,5.0,SSW,3.5,-,N/A,,Clear,200,2013-08-26 12:15:00
7:35 AM,68.7,64.9,88,30.15,5.0,SSW,4.6,-,N/A,,Clear,210,2013-08-26 12:35:00
7:55 AM,71.4,65.8,82,30.15,7.0,SSW,5.8,-,N/A,,Clear,210,2013-08-26 12:55:00
8:15 AM,73.4,66.7,80,30.15,10.0,SSW,4.6,-,N/A,,Clear,210,2013-08-26 13:15:00
8:35 AM,75.2,67.1,76,30.15,10.0,SW,5.8,-,N/A,,Clear,220,2013-08-26 13:35:00
8:55 AM,76.5,67.8,75,30.15,10.0,SW,4.6,-,N/A,,Clear,230,2013-08-26 13:55:00
9:15 AM,78.8,68.9,72,30.14,10.0,SW,6.9,-,N/A,,Clear,230,2013-08-26 14:15:00
9:35 AM,80.2,69.3,69,30.14,10.0,SW,5.8,-,N/A,,Clear,230,2013-08-26 14:35:00
9:55 AM,82.4,70.2,66,30.14,10.0,SW,8.1,-,N/A,,Clear,230,2013-08-26 14:55:00
10:15 AM,83.7,69.8,63,30.14,10.0,SW,8.1,-,N/A,,Clear,230,2013-08-26 15:15:00
10:35 AM,84.9,70.0,61,30.14,10.0,SW,8.1,-,N/A,,Clear,230,2013-08-26 15:35:00
10:55 AM,85.6,70.0,59,30.14,10.0,SW,9.2,-,N/A,,Clear,230,2013-08-26 15:55:00
11:15 AM,86.9,69.6,56,30.13,10.0,WSW,9.2,-,N/A,,Clear,240,2013-08-26 16:15:00
11:35 AM,87.3,69.6,56,30.13,10.0,SW,9.2,-,N/A,,Clear,230,2013-08-26 16:35:00
11:55 AM,88.0,70.2,55,30.12,10.0,WSW,8.1,-,N/A,,Clear,240,2013-08-26 16:55:00
12:15 PM,88.7,70.2,54,30.11,10.0,SW,6.9,-,N/A,,Clear,220,2013-08-26 17:15:00
12:35 PM,89.2,70.0,53,30.11,10.0,SW,9.2,-,N/A,,Clear,230,2013-08-26 17:35:00
12:55 PM,89.8,69.6,51,30.10,10.0,WSW,10.4,-,N/A,,Clear,240,2013-08-26 17:55:00
1:15 PM,90.7,69.6,50,30.10,10.0,WSW,8.1,-,N/A,,Clear,240,2013-08-26 18:15:00
1:35 PM,91.2,69.3,48,30.09,10.0,SW,6.9,-,N/A,,Clear,220,2013-08-26 18:35:00
1:55 PM,91.4,69.4,48,30.08,10.0,SW,5.8,-,N/A,,Clear,220,2013-08-26 18:55:00
2:15 PM,91.9,68.7,46,30.07,10.0,SW,8.1,-,N/A,,Clear,220,2013-08-26 19:15:00
2:35 PM,92.5,69.3,46,30.07,10.0,SW,8.1,-,N/A,,Clear,230,2013-08-26 19:35:00
2:55 PM,92.7,66.2,42,30.06,10.0,SW,6.9,-,N/A,,Clear,220,2013-08-26 19:55:00
3:15 PM,93.0,68.4,44,30.05,10.0,SW,3.5,-,N/A,,Clear,220,2013-08-26 20:15:00
3:35 PM,92.8,67.1,43,30.05,10.0,SW,6.9,-,N/A,,Clear,220,2013-08-26 20:35:00
3:55 PM,92.1,67.6,44,30.05,10.0,SSW,6.9,-,N/A,,Scattered Clouds,210,2013-08-26 20:55:00
4:15 PM,91.4,68.2,46,30.04,10.0,SW,3.5,-,N/A,,Scattered Clouds,220,2013-08-26 21:15:00
4:35 PM,92.3,67.6,44,30.04,10.0,SW,5.8,-,N/A,,Scattered Clouds,220,2013-08-26 21:35:00
4:55 PM,92.3,66.9,43,30.04,10.0,SW,5.8,-,N/A,,Clear,230,2013-08-26 21:55:00
5:15 PM,92.1,69.3,47,30.04,10.0,SSW,4.6,-,N/A,,Clear,210,2013-08-26 22:15:00
5:35 PM,91.6,70.3,50,30.04,10.0,SSW,4.6,-,N/A,,Scattered Clouds,200,2013-08-26 22:35:00
5:55 PM,90.5,71.1,53,30.03,10.0,South,3.5,-,N/A,,Scattered Clouds,180,2013-08-26 22:55:00
6:15 PM,89.8,71.1,54,30.02,10.0,South,4.6,-,N/A,,Clear,190,2013-08-26 23:15:00
6:35 PM,88.2,71.4,57,30.02,10.0,South,4.6,-,N/A,,Clear,180,2013-08-26 23:35:00
6:55 PM,86.9,70.5,58,30.01,10.0,South,4.6,-,N/A,,Clear,190,2013-08-26 23:55:00
7:15 PM,85.1,70.0,60,30.01,10.0,SSW,3.5,-,N/A,,Clear,200,2013-08-27 00:15:00
7:35 PM,83.1,70.3,65,30.01,10.0,SSW,4.6,-,N/A,,Clear,200,2013-08-27 00:35:00
7:55 PM,81.5,68.9,65,30.00,10.0,South,5.8,-,N/A,,Clear,190,2013-08-27 00:55:00
8:15 PM,80.8,68.0,65,30.00,10.0,South,5.8,-,N/A,,Clear,190,2013-08-27 01:15:00
8:35 PM,79.3,67.8,68,30.00,10.0,South,4.6,-,N/A,,Clear,190,2013-08-27 01:35:00
8:55 PM,77.5,67.6,71,30.00,10.0,South,4.6,-,N/A,,Clear,190,2013-08-27 01:55:00
9:15 PM,76.1,67.5,74,30.00,10.0,South,5.8,-,N/A,,Clear,190,2013-08-27 02:15:00
9:35 PM,76.3,66.7,72,30.00,10.0,SSW,5.8,-,N/A,,Clear,200,2013-08-27 02:35:00
9:55 PM,77.0,66.2,69,30.01,10.0,SSW,5.8,-,N/A,,Clear,210,2013-08-27 02:55:00
10:15 PM,76.6,66.2,70,30.01,10.0,SSW,5.8,-,N/A,,Clear,210,2013-08-27 03:15:00
10:35 PM,76.5,66.2,70,30.01,10.0,SSW,5.8,-,N/A,,Clear,210,2013-08-27 03:35:00
10:55 PM,76.1,66.2,71,30.01,10.0,SSW,5.8,-,N/A,,Clear,210,2013-08-27 03:55:00
11:15 PM,75.4,66.4,73,30.01,10.0,SSW,6.9,-,N/A,,Clear,210,2013-08-27 04:15:00
11:35 PM,75.4,66.7,74,30.01,10.0,SSW,6.9,-,N/A,,Clear,210,2013-08-27 04:35:00
11:55 PM,75.2,66.9,75,30.01,10.0,SSW,6.9,-,N/A,,Clear,210,2013-08-27 04:55:00